Bad Axe, MI

4:25 AM EST on November 23, 2017 (GMT -0500)
Huron County Memorial

Weather History for KBAX - November, 2013

Change the Weather History Date:

Thursday, November 7, 2013

  Actual Average (KP58) Record (KP58)
Temperature  
Mean Temperature 38 °F -  
Max Temperature 40 °F 46 °F 66 °F (2016)
Min Temperature 36 °F 35 °F 24 °F (2002)
Degree Days  
Heating Degree Days 27    
Moisture  
Dew Point 30 °F    
Average Humidity 70    
Maximum Humidity 84    
Minimum Humidity 62    
Precipitation  
Precipitation 0.00 in - - ()
Sea Level Pressure  
Sea Level Pressure 30.04 in    
Wind  
Wind Speed 10 mph (WNW)    
Max Wind Speed 18 mph    
Max Gust Speed 26 mph    
Visibility 10 miles    
Events Snow    
Averages and records for this station are not official NWS values.
T = Trace of Precipitation, MM = Missing Value Source: NWS Daily Summary

Daily Weather History Graph

Daily Weather History Graph

Search for Another Location

Airport or City:

Trip Planner

Search our weather history database for the weather conditions in past years. The results will help you decide how hot, cold, wet, or windy it might be!

Date:

Astronomy

Nov. 07, 2013 Rise Set
Actual Time 7:16 AM EST 5:14 PM EST
Civil Twilight 6:45 AM EST 5:44 PM EST
Nautical Twilight 6:11 AM EST 6:19 PM EST
Astronomical Twilight 5:37 AM EST 6:52 PM EST
Moon 11:25 AM EST (11/7) 9:23 PM EST (11/7)
Length of Visible Light 10h 59m
Length of Day
9h 58m
Waxing Crescent, 22% of the Moon is Illuminated
Nov 7
Waxing Crescent
Nov 10
First Quarter
Nov 17
Full
Nov 25
Last Quarter
Dec 2
New

Hourly Weather History & Observations

Time (EST) Temp. Windchill Dew Point Humidity Pressure Visibility Wind Dir Wind Speed Gust Speed Precip Events Conditions
12:15 AM 40.3 °F 33.0 °F 35.6 °F 83% 29.96 in 10.0 mi WNW 12.7 mph 17.3 mph N/A   Scattered Clouds
12:35 AM 40.1 °F 34.7 °F 34.7 °F 81% 29.96 in 10.0 mi NW 8.1 mph - N/A   Mostly Cloudy
12:54 AM 39.6 °F 35.4 °F 35.1 °F 84% 29.97 in 10.0 mi WNW 5.8 mph - N/A   Mostly Cloudy
1:15 AM 39.4 °F 33.8 °F 34.7 °F 83% 29.98 in 10.0 mi NW 8.1 mph - N/A   Mostly Cloudy
1:35 AM 39.9 °F 35.1 °F 34.7 °F 82% 29.98 in 10.0 mi WNW 6.9 mph - N/A   Overcast
1:54 AM 40.1 °F 33.2 °F 35.1 °F 82% 29.98 in 10.0 mi WNW 11.5 mph - N/A   Overcast
2:15 AM 39.7 °F 32.3 °F 34.5 °F 82% 29.98 in 10.0 mi WNW 12.7 mph 16.1 mph N/A   Overcast
2:35 AM 39.7 °F 33.2 °F 34.7 °F 82% 29.99 in 10.0 mi WNW 10.4 mph - N/A   Overcast
2:54 AM 38.8 °F 31.2 °F 32.2 °F 77% 29.99 in 10.0 mi WNW 12.7 mph 23.0 mph N/A   Overcast
3:15 AM 38.8 °F 32.6 °F 32.0 °F 76% 29.99 in 10.0 mi WNW 9.2 mph - N/A   Overcast
3:35 AM 38.8 °F 33.8 °F 32.7 °F 79% 30.00 in 10.0 mi WNW 6.9 mph - N/A   Overcast
3:54 AM 39.2 °F 35.0 °F 32.7 °F 78% 30.00 in 10.0 mi WNW 5.8 mph - N/A   Overcast
4:15 AM 39.2 °F 33.6 °F 33.1 °F 79% 30.00 in 10.0 mi WNW 8.1 mph - N/A   Overcast
4:34 AM 39.2 °F 34.2 °F 33.1 °F 79% 30.00 in 10.0 mi WNW 6.9 mph - N/A   Overcast
4:54 AM 39.2 °F 33.6 °F 32.7 °F 78% 30.00 in 10.0 mi WNW 8.1 mph - N/A   Overcast
5:15 AM 38.8 °F 34.6 °F 32.9 °F 79% 30.00 in 10.0 mi West 5.8 mph - N/A   Overcast
5:34 AM 38.7 °F 32.9 °F 32.9 °F 80% 30.01 in 10.0 mi WNW 8.1 mph - N/A   Overcast
5:54 AM 38.8 °F 32.1 °F 32.4 °F 78% 30.01 in 10.0 mi WNW 10.4 mph - N/A   Overcast
6:14 AM 38.7 °F 32.9 °F 32.0 °F 77% 30.02 in 10.0 mi WNW 8.1 mph - N/A   Overcast
6:34 AM 38.5 °F 31.6 °F 31.3 °F 75% 30.02 in 10.0 mi WNW 10.4 mph 16.1 mph N/A   Overcast
6:55 AM 38.1 °F 31.7 °F 29.7 °F 72% 30.02 in 10.0 mi WNW 9.2 mph - N/A   Overcast
7:14 AM 37.6 °F 31.6 °F 28.4 °F 69% 30.03 in 10.0 mi WNW 8.1 mph - N/A   Overcast
7:34 AM 37.6 °F 31.6 °F 28.4 °F 69% 30.04 in 10.0 mi WNW 8.1 mph - N/A   Overcast
7:55 AM 37.8 °F 30.7 °F 28.2 °F 68% 30.04 in 10.0 mi West 10.4 mph - N/A   Overcast
8:14 AM 37.8 °F 32.5 °F 28.6 °F 69% 30.05 in 10.0 mi West 6.9 mph - N/A   Overcast
8:34 AM 38.3 °F 31.9 °F 29.3 °F 70% 30.05 in 10.0 mi WNW 9.2 mph - N/A   Overcast
8:54 AM 38.3 °F 30.9 °F 29.5 °F 71% 30.05 in 10.0 mi WNW 11.5 mph 17.3 mph N/A   Overcast
9:14 AM 38.7 °F 32.4 °F 30.0 °F 71% 30.06 in 10.0 mi West 9.2 mph - N/A   Overcast
9:35 AM 38.5 °F 31.6 °F 29.8 °F 71% 30.06 in 10.0 mi West 10.4 mph - N/A   Overcast
9:54 AM 38.5 °F 30.7 °F 29.3 °F 70% 30.06 in 10.0 mi West 12.7 mph 18.4 mph N/A   Overcast
10:14 AM 38.7 °F 32.4 °F 30.0 °F 71% 30.06 in 10.0 mi West 9.2 mph - N/A   Overcast
10:35 AM 38.8 °F 31.2 °F 30.0 °F 71% 30.06 in 10.0 mi West 12.7 mph 16.1 mph N/A   Overcast
10:54 AM 39.2 °F 31.2 °F 30.0 °F 70% 30.07 in 10.0 mi West 13.8 mph 18.4 mph N/A   Overcast
11:14 AM 39.4 °F 31.1 °F 29.3 °F 67% 30.07 in 10.0 mi West 15.0 mph 21.9 mph N/A   Overcast
11:35 AM 39.4 °F 31.1 °F 28.9 °F 66% 30.07 in 10.0 mi West 15.0 mph 21.9 mph N/A   Overcast
11:54 AM 39.7 °F 30.9 °F 28.9 °F 65% 30.07 in 10.0 mi West 17.3 mph 21.9 mph N/A   Overcast
12:14 PM 39.6 °F 32.1 °F 29.3 °F 67% 30.07 in 10.0 mi WNW 12.7 mph 23.0 mph N/A   Overcast
12:35 PM 39.7 °F 31.9 °F 30.2 °F 69% 30.06 in 10.0 mi West 13.8 mph 23.0 mph N/A   Overcast
12:54 PM 39.6 °F 31.3 °F 30.4 °F 70% 30.06 in 10.0 mi West 15.0 mph 21.9 mph N/A   Overcast
1:14 PM 39.9 °F 31.1 °F 29.5 °F 66% 30.05 in 10.0 mi West 17.3 mph 20.7 mph N/A   Overcast
1:35 PM 40.1 °F 32.0 °F 28.9 °F 64% 30.05 in 10.0 mi West 15.0 mph 21.9 mph N/A   Overcast
1:54 PM 39.9 °F 31.4 °F 28.8 °F 64% 30.05 in 10.0 mi West 16.1 mph 23.0 mph N/A   Overcast
2:15 PM 39.6 °F 30.3 °F 28.6 °F 65% 30.05 in 10.0 mi WNW 18.4 mph 23.0 mph N/A   Overcast
2:34 PM 39.6 °F 30.6 °F 28.8 °F 65% 30.05 in 10.0 mi West 17.3 mph 26.5 mph N/A   Overcast
2:54 PM 39.6 °F 30.3 °F 28.8 °F 65% 30.05 in 10.0 mi West 18.4 mph 25.3 mph N/A   Overcast
3:15 PM 39.0 °F 31.0 °F 29.1 °F 68% 30.05 in 10.0 mi West 13.8 mph 18.4 mph N/A   Overcast
3:34 PM 38.7 °F 30.9 °F 28.4 °F 67% 30.04 in 10.0 mi West 12.7 mph 21.9 mph N/A   Overcast
3:54 PM 38.7 °F 31.8 °F 27.5 °F 64% 30.04 in 10.0 mi West 10.4 mph - N/A   Overcast
4:15 PM 38.8 °F 31.6 °F 28.0 °F 65% 30.04 in 10.0 mi West 11.5 mph 17.3 mph N/A   Overcast
4:35 PM 38.7 °F 30.5 °F 28.0 °F 66% 30.04 in 10.0 mi West 13.8 mph 17.3 mph N/A   Overcast
4:54 PM 38.5 °F 31.6 °F 28.0 °F 66% 30.04 in 10.0 mi West 10.4 mph 17.3 mph N/A   Overcast
5:14 PM 38.5 °F 31.1 °F 27.1 °F 64% 30.04 in 10.0 mi West 11.5 mph - N/A   Overcast
5:35 PM 38.3 °F 32.5 °F 27.0 °F 64% 30.05 in 10.0 mi West 8.1 mph - N/A   Overcast
5:54 PM 38.3 °F 32.5 °F 26.8 °F 63% 30.05 in 10.0 mi West 8.1 mph 17.3 mph N/A   Overcast
6:15 PM 38.3 °F 31.9 °F 26.8 °F 63% 30.06 in 10.0 mi WNW 9.2 mph - N/A   Overcast
6:34 PM 38.3 °F 31.9 °F 26.8 °F 63% 30.06 in 10.0 mi West 9.2 mph - N/A   Overcast
6:54 PM 38.3 °F 32.5 °F 27.3 °F 65% 30.06 in 10.0 mi West 8.1 mph - N/A   Overcast
7:15 PM 38.3 °F 31.9 °F 27.3 °F 65% 30.06 in 10.0 mi West 9.2 mph - N/A   Overcast
7:34 PM 38.3 °F 32.5 °F 27.3 °F 65% 30.06 in 10.0 mi West 8.1 mph - N/A   Overcast
7:54 PM 38.3 °F 33.2 °F 27.1 °F 64% 30.06 in 10.0 mi West 6.9 mph - N/A   Overcast
8:15 PM 38.3 °F 31.9 °F 26.6 °F 63% 30.06 in 10.0 mi West 9.2 mph - N/A   Overcast
8:34 PM 38.1 °F 33.7 °F 26.6 °F 63% 30.06 in 10.0 mi WNW 5.8 mph - N/A   Overcast
8:54 PM 38.3 °F 33.2 °F 26.6 °F 63% 30.05 in 10.0 mi WNW 6.9 mph - N/A   Overcast
9:15 PM 37.9 °F 32.7 °F 26.6 °F 64% 30.05 in 10.0 mi WNW 6.9 mph - N/A   Overcast
9:34 PM 37.8 °F 31.8 °F 25.9 °F 62% 30.05 in 10.0 mi WNW 8.1 mph - N/A   Overcast
9:54 PM 37.6 °F 31.6 °F 26.2 °F 64% 30.05 in 10.0 mi WNW 8.1 mph - N/A   Overcast
10:15 PM 37.4 °F 31.4 °F 26.4 °F 65% 30.05 in 10.0 mi West 8.1 mph - N/A   Overcast
10:34 PM 37.2 °F 31.9 °F 26.6 °F 65% 30.05 in 10.0 mi West 6.9 mph - N/A   Overcast
10:54 PM 37.0 °F 30.4 °F 27.0 °F 67% 30.05 in 10.0 mi West 9.2 mph 18.4 mph N/A   Overcast
11:15 PM 37.0 °F 31.0 °F 27.5 °F 68% 30.06 in 10.0 mi West 8.1 mph - N/A   Overcast
11:34 PM 36.9 °F 29.6 °F 28.0 °F 70% 30.05 in 10.0 mi West 10.4 mph - N/A   Overcast
11:54 PM 36.9 °F 28.2 °F 29.1 °F 74% 30.06 in 7.0 mi NW 13.8 mph 19.6 mph N/A Snow Light Snow